This is the latest recevied weather packets stored in our database for station/object W4TJP. If no packets are shown the sender has not sent any weather packets the latest 10 day(s).
| Time | Temp. | Humidity | Pressure | Rain* | Wind** | Luminosity | Snow |
|---|---|---|---|---|---|---|---|
| 1777829180 | 15° C | 54% | 1019.9 hPa | 0 mm | - | 711 W/m² | - |
| 1777828878 | 15.56° C | 45% | 1019.8 hPa | 0 mm | - | 684 W/m² | - |
| 1777828574 | 15.56° C | 51% | 1020 hPa | 0 mm | - | 673 W/m² | - |
| 1777828272 | 15° C | 53% | 1020.2 hPa | 0 mm | - | 696 W/m² | - |
| 1777827969 | 15° C | 50% | 1020.4 hPa | 0 mm | - | 676 W/m² | - |
| 1777827665 | 15° C | 54% | 1020.4 hPa | 0 mm | - | 691 W/m² | - |
| 1777827362 | 14.44° C | 59% | 1020.4 hPa | 0 mm | - | 710 W/m² | - |
| 1777827058 | 15° C | 54% | 1020.2 hPa | 0 mm | - | 696 W/m² | - |
| 1777826755 | 14.44° C | 56% | 1020.3 hPa | 0 mm | - | 694 W/m² | - |
| 1777826452 | 13.89° C | 55% | 1020.5 hPa | 0 mm | - | 705 W/m² | - |
| 1777826149 | 13.89° C | 63% | 1020.4 hPa | 0 mm | - | 719 W/m² | - |
| 1777825846 | 13.89° C | 57% | 1020.4 hPa | 0 mm | - | 699 W/m² | - |
| 1777825543 | 12.78° C | 59% | 1020.8 hPa | 0 mm | - | 723 W/m² | - |
| 1777825241 | 13.33° C | 59% | 1020.5 hPa | 0 mm | - | 186 W/m² | - |
| 1777824938 | 13.89° C | 56% | 1020.7 hPa | 0 mm | - | 167 W/m² | - |
| 1777824634 | 12.78° C | 56% | 1020.6 hPa | 0 mm | - | 753 W/m² | - |
| 1777824332 | 12.22° C | 59% | 1020.7 hPa | 0 mm | - | 760 W/m² | - |
| 1777824027 | 12.22° C | 61% | 1020.8 hPa | 0 mm | - | 153 W/m² | - |
| 1777823724 | 12.22° C | 60% | 1020.9 hPa | 0 mm | - | 238 W/m² | - |
| 1777823421 | 12.78° C | 57% | 1021.1 hPa | 0 mm | - | 213 W/m² | - |
| 1777823118 | 13.33° C | 54% | 1020.9 hPa | 0 mm | - | 341 W/m² | - |
| 1777822815 | 13.89° C | 59% | 1020.9 hPa | 0 mm | - | 862 W/m² | - |
| 1777822514 | 12.78° C | 59% | 1020.8 hPa | 0 mm | - | 790 W/m² | - |
| 1777822211 | 12.78° C | 56% | 1021 hPa | 0 mm | - | 754 W/m² | - |
| 1777821908 | 12.78° C | 56% | 1021.3 hPa | 0 mm | - | 761 W/m² | - |
* Rain latest hour (hover to see other rain measurements)
** Current wind speed in m/s (hover to see current wind gust speed)